Regional Weather Roundup
Issued by NWS

Home | Current Version | Previous Version | Text Only | Print | Product List | Glossary On
Versions: 1 2 3 4 5 6 7 8 9 10 11 12 13 14 15 16 17 18 19 20 21 22 23 24 25 26 27 28 29 30 31 32 33 34 35 36 37 38 39 40 41 42 43 44 45 46 47 48 49 50
000
ASUS44 KLIX 290313
RWRLA
LOUISIANA WEATHER ROUNDUP
NATIONAL WEATHER SERVICE NEW ORLEANS LA
1000 PM CDT TUE MAR 28 2017

NOTE: "FAIR" INDICATES FEW OR NO CLOUDS BELOW 12,000 FEET WITH NO
      SIGNIFICANT WEATHER AND/OR OBSTRUCTIONS TO VISIBILITY.
      SKY/WX - SKY CONDITION AND SIGNIFICANT WEATHER.
      TMP - AIR TEMPERATURE.    DP   - DEWPOINT TEMPERATURE.
      RH  - RELATIVE HUMIDITY.  PRES - PRESSURE.
      HX  - HEAT INDEX.         WCI  - WIND CHILL INDEX.

*  THESE STATIONS ARE NOT NWS OR FAA STATIONS AND ARE NOT UNDER
   NWS QUALITY CONTROL.

LAZ040-048-061>063-065-066-069-290400-
SOUTHEAST LOUISIANA

CITY           SKY/WX    TMP DP  RH WIND       PRES   REMARKS
N.O. INTL ARPT PTCLDY    72  67  84 SE9       29.95S
N.O. LAKEFRONT CLEAR     73  68  84 S9        29.96R
N.O. DOWNTOWN* NOT AVBL
RESERVE*       FAIR      72  69  90 SE7       29.95R
SLIDELL        PTCLDY    72  68  87 SE8       29.95S
BATON ROUGE    CLEAR     74  64  71 SE8       29.92S
BOOTHVILLE     PTCLDY    72  71  97 SE8       29.98S
BELLE CHASSE   PTCLDY    72  69  90 S7        29.96R
BOGALUSA*      NOT AVBL
GALLIANO*      MOCLDY    73  66  80 SE8       29.96R
NEW ROADS*     NOT AVBL
GONZALES*      NOT AVBL
HAMMOND*       CLEAR     70  63  78 SE6       29.95R
HOUMA*         PTCLDY    72  68  85 SE8       29.95R
PORT FOURCHON* PTCLDY    73  70  88 SE12G18   29.96R

$$

LAZ041-044-053-054-290400-
SOUTHWEST LOUISIANA

CITY           SKY/WX    TMP DP  RH WIND       PRES   REMARKS
LAKE CHARLES   MOCLDY    72  68  87 SE14      29.86S
LAFAYETTE      PTCLDY    74  69  85 VRB6      29.91R
PATTERSON      PTCLDY    71  68  90 SE8       29.94R
SALT POINT       N/A     71  68  90 SE8       29.92R
NEW IBERIA     CLOUDY    71  66  84 SE14      29.92R
CHENAULT AIRPK MOCLDY    72  68  88 SE16      29.87S

$$

LAZ027-028-290400-
CENTRAL LOUISIANA

CITY           SKY/WX    TMP DP  RH WIND       PRES   REMARKS
FORT POLK      CLEAR     71  46  41 SE15      29.86R
ALEXANDRIA INT LGT RAIN  71  63  75 S12       29.86R
ALEXANDRIA     CLEAR     71  61  70 SE5       29.88R

$$

LAZ001-002-290400-
NORTHWEST LOUISIANA

CITY           SKY/WX    TMP DP  RH WIND       PRES   REMARKS
SHREVEPORT     CLEAR     75  61  61 SE13      29.81R
BARKSDALE AFB  CLEAR     74  60  61 S14       29.82R
DTN SHREVEPORT CLEAR     77  60  55 S13       29.82R

$$

LAZ014-016-290400-
NORTHEAST LOUISIANA

CITY           SKY/WX    TMP DP  RH WIND       PRES   REMARKS
MONROE         CLEAR     75  63  66 SE3       29.87R
TALLULAH       CLEAR     70  64  81 SE7       29.90R

$$




USA.gov is the U.S. government's official web portal to all federal, state and local government web resources and services.